Newton, KS

12:20 PM CST on December 05, 2019 (GMT -0600)
Newton City County

Weather History for KEWK - October, 2019

Change the Weather History Date:

Saturday, October 26, 2019

  Actual Average Record
Temperature  
Mean Temperature 46 °F -  
Max Temperature 62 °F 60 °F 87 °F (2014)
Min Temperature 30 °F 42 °F 10 °F (2013)
Degree Days  
Heating Degree Days 19    
Moisture  
Dew Point 31 °F    
Average Humidity 61    
Maximum Humidity 92    
Minimum Humidity 28    
Precipitation  
Precipitation 0.00 in - - ()
Sea Level Pressure  
Sea Level Pressure 29.87 in    
Wind  
Wind Speed 6 mph (South)    
Max Wind Speed 12 mph    
Max Gust Speed -    
Visibility 10 miles    
Events      
Averages and records for this station are not official NWS values.
T = Trace of Precipitation, MM = Missing Value Source: NWS Daily Summary

Daily Weather History Graph

Daily Weather History Graph

Search for Another Location

Airport or City:

Astronomy

Oct. 26, 2019 Rise Set
Actual Time 7:48 AM CDT 6:37 PM CDT
Civil Twilight 7:21 AM CDT 7:04 PM CDT
Nautical Twilight 6:50 AM CDT 7:34 PM CDT
Astronomical Twilight 6:20 AM CDT 8:05 PM CDT
Moon 5:48 AM CDT (10/26) 6:10 PM CDT (10/26)
Length of Visible Light 11h 42m
Length of Day
10h 48m
Waning Crescent, 3% of the Moon is Illuminated
Oct 26
Waning Crescent
Oct 27
New
Nov 4
First Quarter
Nov 12
Full
Nov 19
Last Quarter

Hourly Weather History & Observations

Time (CDT) Temp. Windchill Dew Point Humidity Pressure Visibility Wind Dir Wind Speed Gust Speed Precip Events Conditions
12:56 AM 39.0 °F 35.7 °F 28.0 °F 65% 30.11 in 10.0 mi East 4.6 mph - N/A   Clear
1:56 AM 37.9 °F 34.4 °F 28.9 °F 70% 30.08 in 10.0 mi ESE 4.6 mph - N/A   Clear
2:56 AM 36.0 °F 30.3 °F 30.0 °F 79% 30.04 in 10.0 mi ESE 6.9 mph - N/A   Clear
3:56 AM 35.1 °F 31.0 °F 28.0 °F 76% 30.02 in 10.0 mi NNW 4.6 mph - 0.00 in   Clear
4:56 AM 34.0 °F 29.8 °F 30.0 °F 85% 29.99 in 10.0 mi North 4.6 mph - N/A   Clear
5:56 AM 34.0 °F 29.8 °F 30.0 °F 85% 29.97 in 10.0 mi East 4.6 mph - N/A   Clear
6:56 AM 33.1 °F 27.7 °F 30.0 °F 89% 29.95 in 9.0 mi NW 5.8 mph - N/A   Clear
7:56 AM 30.0 °F 26.5 °F 28.0 °F 92% 29.93 in 10.0 mi NNW 3.5 mph - N/A   Clear
8:56 AM 39.9 °F 36.7 °F 36.0 °F 86% 29.92 in 10.0 mi ESE 4.6 mph - N/A   Clear
9:56 AM 46.0 °F - 35.1 °F 66% 29.92 in 10.0 mi Calm Calm - N/A   Clear
10:56 AM 50.0 °F - 36.0 °F 59% 29.89 in 10.0 mi Variable 3.5 mph - N/A   Clear
11:56 AM 52.0 °F - 33.1 °F 49% 29.86 in 10.0 mi SW 4.6 mph - N/A   Clear
1:56 PM 59.0 °F - 28.0 °F 31% 29.78 in 10.0 mi SSW 8.1 mph - N/A   Clear
2:56 PM 61.0 °F - 28.0 °F 29% 29.75 in 10.0 mi South 11.5 mph - N/A   Clear
3:56 PM 62.1 °F - 28.0 °F 28% 29.75 in 10.0 mi SSW 10.4 mph - N/A   Clear
4:56 PM 61.0 °F - 28.9 °F 30% 29.74 in 10.0 mi SSW 10.4 mph - N/A   Clear
5:56 PM 59.0 °F - 30.0 °F 33% 29.73 in 10.0 mi SSW 10.4 mph - N/A   Clear
6:56 PM 48.0 °F - 28.9 °F 48% 29.74 in 10.0 mi South 10.4 mph - N/A   Clear
7:56 PM 46.9 °F - 30.9 °F 54% 29.75 in 10.0 mi South 10.4 mph - N/A   Clear
8:56 PM 45.0 °F 39.7 °F 33.1 °F 63% 29.76 in 10.0 mi South 10.4 mph - N/A   Clear
9:56 PM 44.1 °F 39.0 °F 32.0 °F 63% 29.76 in 10.0 mi South 9.2 mph - N/A   Clear
10:56 PM 45.0 °F 39.7 °F 33.1 °F 63% 29.77 in 10.0 mi South 10.4 mph - N/A   Clear
11:56 PM 42.1 °F 36.1 °F 33.1 °F 70% 29.77 in 10.0 mi South 10.4 mph - N/A   Clear